sat.trackr.live / text

‹ back to catalog

STARLINK-4355

NORAD 53048 · 2022-077F

PAYLOAD ACTIVE UNKNOWN

§ Identity

Operator
Country
US
Launch date
2022-07-11
Launch site
AFWTR
Launch vehicle
Mass (kg)
RCS (m²)

Purposes: comms

External: N2YO · Heavens-Above · Gunter

§ Orbital elements

Epoch: 2026-05-25T01:53:07.637568Z

Period
95.64 min
Inclination
97.4472°
Eccentricity
0.0000955
Mean motion
15.05616404 rev/d
Perigee alt
549.0 km
Apogee alt
550.3 km
Semi-major
6,927.8 km
B*
4.1507e-4
RAAN
326.1598°
Arg perigee
112.4630°
Mean anomaly
247.6698°
Rev number
21,247

§ Raw data

STARLINK-43551 53048U 22077F   26145.07856062  .00005930  00000+0  41507-3 0  99962 53048  97.4472 326.1598 0000955 112.4630 247.6698 15.05616404212475

JSON: /api/v1/satellites/53048 · /tle

For live sub-satellite position, see the globe view (requires WebGL).

§ Visibility from observer

Set your observer location to see the next 7 days of passes ≥ 10°. The values pass through the URL so the page stays shareable.

No JS? Fill the form by hand. The geolocation button needs JavaScript.